Showing default

NEONSAT-1, 59587

Orbit data source: Space-Track

NEONSAT-1, 59587 is a payload satellite owned by KAIST (KR) in SSO that was launched on Tue, 23 Apr 2024 UTC via an ELECTRON launch vehicle from the Rocket Lab Launch Complex (RLLC). Payload-class satellites include a variety of spacecraft equipped with specific instruments for various scientific and technological missions. These include communications satellites like Starlink; space stations such as the ISS; scientific satellites like the Hubble; Earth observation satellites from companies like Planet Labs, Umbra, and HawkEye 360; GPS; miniature CubeSats for education and research; and military/defense satellites.

Loading next visibility...
Identifier
59587, 2024-077A
Orbit
SSO
Last TLE update
6 hours ago
Origin
Manufacturer
KAIST/SATRHW
Mission
Operational spacecraft
Bus & Motor
NEONSAT, Unknown motor
Mass
~100 kg wet, ~100 kg dry
Launch date (UTC)
2024-04-23 (1 year ago)
Launch vehicle
ELECTRON
Launch site
Rocket Lab Launch Complex (RLLC)
Object type
Payload
Rocket body
Debris
Shape & HBR
Unknown
Radar Cross Section
Medium (>0.1 m² and <1 m²)

Expand to show TLE details & history

TLE from 6 hours ago
0 NEONSAT-1
1 59587U 24077A   25182.83591946  .00006419  00000-0  22783-3 0  9992
2 59587  97.3786 263.0629 0011121 195.0717 165.0193 15.29340317 66035
Epoch: 2025-07-01T20:03Z
TLE epoch observation values (Epoch: 2025-07-01T20:03:43.441Z)
Latitude
-0.00007°
Longitude
42.00624°
Altitude
488.254 km
Speed
7.617 km/s
True Right ascension
17h 32m 15s
True Declination
0° 00' 00"
Sunlit
Object was in full shadow at epoch
Visualization orbit readout
Latitude
-10.50945°
Longitude
43.63293°
Altitude
489.769 km
Speed
7.616 km/s
Apparent Right ascension
20h 40m 46s
Apparent Declination
-43° 23' 23"
Sunlit
Object is in full shadow
Visualization observer readout
Local Sidereal Time
13:58:53
Azimuth
121.747° SE
Elevation
-32.825°
Doppler factor
1
Orbital elements
Apogee altitude
482.356 km
Perigee altitude
467.114 km
Semi-major axis
6,852.872 km
Eccentricity
0.00111
Inclination
97.3786°
RAAN
263.0629°
Arg. of periapsis
195.0717°
True anomaly
Unknown
Mean anomaly
165.0193°
Eccentric anomaly
Unknown
Mean motion
3.82591 °/min
Orbital period
94.1 mins
BSTAR
0.00022783
Loading maneuver chart data...
Loading SW <> Apogee altitude chart data...
Loading historical data...
Loading historical data...
Loading historical data...
Loading historical data...
Loading historical data...
Loading historical data...
Loading historical data...
Other satellites on launch #77 in the year 2024 (2024-04-23 UTC)

NEONSAT-1 Visibility forecast

Observer location: undefined°, undefined°

Span
Click to sort rows by Start time (UTC) header in descending order
Start Az.
Max El. time (UTC)
Max El. Az.
Max El.
End time (UTC)
End Az.
6 mins2025-07-02 05:36:50.245Z181.715° SSW2025-07-02 05:39:50.245Z292.013° WNW39.602°2025-07-02 05:42:50.245Z340.228° N
5 mins2025-07-02 18:36:50.245Z350.224° N2025-07-02 18:38:50.245Z298.418° NW33.765°2025-07-02 18:41:50.245Z217.282° SW
|